Regional Weather Roundup
Issued by NWS Charleston, WV

Home | Current Version | Previous Version | Text Only | Print | Product List | Glossary Off
Versions: 1 2 3 4 5 6 7 8 9 10 11 12 13 14 15 16 17 18 19 20 21 22 23 24 25 26 27 28 29 30 31 32 33 34 35 36 37 38 39 40 41 42 43 44 45 46 47 48 49 50

000
ASUS41 KRLX 231010
RWRRLX
West Virginia Regional Weather Roundup
National Weather Service Charleston WV
600 AM EDT TUE SEP 23 2014

Note: "fair" indicates few or no clouds below 12,000 feet with no
significant weather and/or obstructions to visibility.

WVZ003-231100-
Northern Panhandle of West Virginia

CITY           SKY/WX    TMP DP  RH WIND       PRES   REMARKS
WHEELING       CLEAR     41  40  96 CALM      30.32R FOG
$$

WVZ009-231100-
Northwest West Virginia

CITY           SKY/WX    TMP DP  RH WIND       PRES   REMARKS
PARKERSBURG    CLOUDY    42  41  96 CALM      30.34R
$$

WVZ006-231100-
Western West Virginia

CITY           SKY/WX    TMP DP  RH WIND       PRES   REMARKS
HUNTINGTON     PTCLDY    45  45 100 N3        30.29S
$$

WVZ015-231100-
West Central West Virginia

CITY           SKY/WX    TMP DP  RH WIND       PRES   REMARKS
CHARLESTON     FOG       46  46 100 CALM      30.29R VSB 1/4
$$

WVZ031-231100-
North Central West Virginia

CITY           SKY/WX    TMP DP  RH WIND       PRES   REMARKS
CLARKSBURG     FOG       40  40 100 CALM      30.31R VSB 1/4
MORGANTOWN     PTCLDY    42  39  89 N5        30.32S FOG
$$

WVZ035-042-045-231100-
South Central West Virginia

CITY           SKY/WX    TMP DP  RH WIND       PRES   REMARKS
BECKLEY        CLEAR     41  38  89 CALM      30.28S
BLUEFIELD      FOG       42  40  92 CALM      30.27S VSB 1/4
LEWISBURG      FOG       40  38  95 CALM      30.29R VSB 1/4
$$

WVZ047-231100-
Northern Mountains of West Virginia

CITY           SKY/WX    TMP DP  RH WIND       PRES   REMARKS
ELKINS         FOG       41  41 100 SE3       30.32R VSB 1/2
$$

WVZ052-231100-
Eastern Panhandle of West Virginia

CITY           SKY/WX    TMP DP  RH WIND       PRES   REMARKS
MARTINSBURG    CLEAR     45  38  76 CALM      30.31R
PETERSBURG     PTCLDY    39  37  93 NE3       30.34R
$$


USA.gov is the U.S. government's official web portal to all federal, state and local government web resources and services.